Tracking 22440 objects as of 27-Feb-2021
HD Live streaming from Space Station
objects crossing your sky now

NOAA 8

Track NOAA 8 now!
10-day predictions
NOAA 8 is classified as:


NORAD ID: 13923
Int'l Code: 1983-022A
Perigee: 792.0 km
Apogee: 814.2 km
Inclination: 98.6 °
Period: 100.8 minutes
Semi major axis: 7174 km
RCS: 5.054 m2 (large)
Launch date: March 28, 1983
Source: United States (US)
Launch site: AIR FORCE WESTERN TEST RANGE (AFWTR)
aabbcc
Your satellite tracking list
Your tracking list is empty




NASA's NSSDC Master Catalog

Two Line Element Set (TLE):
1 13923U 83022A   21057.84793799  .00000015  00000-0  23551-4 0  9990
2 13923  98.6461  46.4076 0015490 157.5082 202.6782 14.28727162974757
Source of the keplerian elements: AFSPC